STARLINK-36699

Last updated on Thu Mar 05 2026 00:02:08 GMT+0000 (Coordinated Universal Time)

1 67652U 26022E 26063.25859576 .00188162 00000+0 12315-2 0 9991 2 67652 97.2822 96.9635 0000578 8.6705 351.4571 15.75252038 4695
UTC large
Height (km)
Speed (km/s)
/
Latitude / Longitude
Inclination (degrees)
Orbital Period (minutes)
Azimuth
Elevation
Range (km)
Doppler Factor

Next 0 passes for location: London (51.5072 / 0.1276)

Sorry there are no passes over London.